TimeCDT,TemperatureF,Dew PointF,Humidity,Sea Level PressureIn,VisibilityMPH,Wind Direction,Wind SpeedMPH,Gust SpeedMPH,PrecipitationIn,Events,Conditions,WindDirDegrees,DateUTC
12:53 AM,82.9,75.9,79,29.96,10.0,SW,5.8,-,N/A,,Mostly Cloudy,230,2013-08-02 05:53:00
1:53 AM,82.9,75.9,79,29.94,10.0,West,4.6,-,N/A,,Scattered Clouds,280,2013-08-02 06:53:00
2:53 AM,82.0,77.0,85,29.94,10.0,West,4.6,-,N/A,,Partly Cloudy,270,2013-08-02 07:53:00
3:53 AM,81.0,75.9,85,29.95,10.0,WNW,3.5,-,N/A,,Scattered Clouds,290,2013-08-02 08:53:00
4:53 AM,81.0,75.9,85,29.95,10.0,West,4.6,-,N/A,,Clear,270,2013-08-02 09:53:00
5:53 AM,80.1,75.9,87,29.97,10.0,Calm,Calm,-,N/A,,Clear,0,2013-08-02 10:53:00
6:53 AM,81.0,75.9,85,29.97,9.0,NW,5.8,-,N/A,,Clear,310,2013-08-02 11:53:00
7:53 AM,82.9,75.9,79,29.97,10.0,NW,8.1,-,N/A,,Clear,310,2013-08-02 12:53:00
8:53 AM,84.0,75.9,76,29.99,10.0,WNW,9.2,-,N/A,,Clear,300,2013-08-02 13:53:00
9:53 AM,88.0,73.9,63,30.01,10.0,Variable,5.8,-,N/A,,Clear,0,2013-08-02 14:53:00
10:53 AM,89.1,75.0,63,30.00,10.0,Variable,3.5,-,N/A,,Partly Cloudy,0,2013-08-02 15:53:00
11:53 AM,90.0,73.0,57,29.99,10.0,Calm,Calm,-,N/A,,Mostly Cloudy,0,2013-08-02 16:53:00
12:53 PM,91.0,73.9,57,29.99,10.0,NNW,4.6,-,N/A,,Mostly Cloudy,330,2013-08-02 17:53:00
1:53 PM,93.9,73.0,51,29.98,10.0,Variable,3.5,-,N/A,,Scattered Clouds,0,2013-08-02 18:53:00
2:53 PM,93.0,73.9,54,29.96,10.0,Calm,Calm,-,N/A,,Mostly Cloudy,0,2013-08-02 19:53:00
3:53 PM,93.9,73.9,52,29.94,10.0,Calm,Calm,-,N/A,,Clear,0,2013-08-02 20:53:00
4:53 PM,91.0,75.9,61,29.94,10.0,South,10.4,17.3,N/A,,Partly Cloudy,190,2013-08-02 21:53:00
5:53 PM,91.0,75.9,61,29.93,10.0,SSW,11.5,-,N/A,,Mostly Cloudy,210,2013-08-02 22:53:00
6:53 PM,89.1,73.9,61,29.95,10.0,SW,10.4,-,N/A,,Clear,230,2013-08-02 23:53:00
7:53 PM,86.0,75.0,70,29.96,10.0,SSW,8.1,-,N/A,,Clear,210,2013-08-03 00:53:00
8:53 PM,84.9,75.0,72,29.98,10.0,WSW,6.9,-,N/A,,Clear,240,2013-08-03 01:53:00
9:53 PM,82.9,75.9,79,30.00,10.0,SW,3.5,-,N/A,,Clear,220,2013-08-03 02:53:00
10:53 PM,82.0,75.9,82,30.01,10.0,South,5.8,-,N/A,,Clear,190,2013-08-03 03:53:00
11:53 PM,81.0,75.9,85,30.01,10.0,SSW,6.9,-,N/A,,Clear,200,2013-08-03 04:53:00